Lander, WY

1:50 AM MDT on April 28, 2017 (GMT -0600)
Hunt

Weather History for KLND - June, 2013

Change the Weather History Date:

Monday, June 17, 2013

  Actual Average Record
Temperature  
Mean Temperature 68 °F 63 °F  
Max Temperature 86 °F 78 °F 95 °F (1940)
Min Temperature 50 °F 49 °F 32 °F (1907)
Degree Days  
Heating Degree Days 0 4  
Month to date heating degree days 48 96  
Since 1 June heating degree days 48 96  
Since 1 July heating degree days 7422 7718  
Cooling Degree Days 3 2  
Month to date cooling degree days 39 23  
Year to date cooling degree days 48 28  
Since 1 June cooling degree days 39 23  
Growing Degree Days 18 (Base 50)    
Moisture  
Dew Point 39 °F    
Average Humidity 39    
Maximum Humidity 63    
Minimum Humidity 15    
Precipitation  
Precipitation 0.00 in 0.04 in 1.41 in (1998)
Month to date precipitation 0.00 0.91  
Year to date precipitation 7.52 7.13  
Snow  
Snow 0.00 in 0.00 in - ()
Month to date snowfall 0.0 0.1  
Since 1 June snowfall 0.0 0.1  
Since 1 July snowfall 111.1 91.4  
Snow Depth 0.00 in    
Sea Level Pressure  
Sea Level Pressure 29.94 in    
Wind  
Wind Speed 5 mph (WNW)    
Max Wind Speed 17 mph    
Max Gust Speed 24 mph    
Visibility 10 miles    
Events      
T = Trace of Precipitation, MM = Missing Value Source: NWS Daily Summary

Daily Weather History Graph

Daily Weather History Graph

Search for Another Location

Airport or City:

Trip Planner

Search our weather history database for the weather conditions in past years. The results will help you decide how hot, cold, wet, or windy it might be!

Date:

Astronomy

Jun. 17, 2013 Rise Set
Actual Time 5:35 AM MDT 8:55 PM MDT
Civil Twilight 5:00 AM MDT 9:31 PM MDT
Nautical Twilight 4:15 AM MDT 10:16 PM MDT
Astronomical Twilight 3:18 AM MDT 11:13 PM MDT
Moon 2:31 PM MDT (6/17) 1:21 AM MDT (6/17)
Length of Visible Light 16h 30m
Length of Day
15h 20m
First Quarter, 61% of the Moon is Illuminated
Jun 17
First Quarter
Jun 23
Full
Jun 29
Last Quarter
Jul 8
New
Jul 15
First Quarter

Hourly Weather History & Observations

Time (MDT) Temp. Dew Point Humidity Pressure Visibility Wind Dir Wind Speed Gust Speed Precip Events Conditions
12:53 AM 62.1 °F 37.0 °F 39% 29.98 in 10.0 mi SW 5.8 mph - N/A   Partly Cloudy
1:53 AM 60.1 °F 39.0 °F 46% 29.98 in 10.0 mi West 3.5 mph - N/A   Clear
2:53 AM 57.9 °F 39.9 °F 51% 29.98 in 10.0 mi WSW 3.5 mph - N/A   Clear
3:53 AM 55.9 °F 39.0 °F 53% 29.98 in 10.0 mi SW 5.8 mph - N/A   Clear
4:53 AM 55.0 °F 37.9 °F 53% 29.99 in 10.0 mi SW 5.8 mph - N/A   Clear
5:53 AM 51.1 °F 39.0 °F 63% 30.01 in 10.0 mi SE 3.5 mph - N/A   Clear
6:53 AM 55.9 °F 42.1 °F 60% 30.01 in 10.0 mi Calm Calm - N/A   Clear
7:53 AM 57.9 °F 42.1 °F 56% 30.02 in 10.0 mi NNW 4.6 mph - N/A   Clear
8:53 AM 63.0 °F 42.1 °F 46% 30.01 in 10.0 mi NNW 3.5 mph - N/A   Clear
9:53 AM 66.9 °F 43.0 °F 42% 30.00 in 10.0 mi North 3.5 mph - N/A   Clear
10:53 AM 70.0 °F 42.1 °F 36% 29.99 in 10.0 mi Variable 3.5 mph - N/A   Clear
11:53 AM 73.0 °F 43.0 °F 34% 29.96 in 10.0 mi NNW 3.5 mph - N/A   Clear
12:53 PM 75.9 °F 43.0 °F 31% 29.94 in 10.0 mi SSE 5.8 mph - N/A   Clear
1:53 PM 79.0 °F 41.0 °F 26% 29.91 in 10.0 mi Variable 3.5 mph - N/A   Clear
2:53 PM 82.9 °F 41.0 °F 23% 29.87 in 10.0 mi NE 6.9 mph - N/A   Clear
3:53 PM 84.0 °F 37.0 °F 19% 29.85 in 10.0 mi Variable 6.9 mph - N/A   Clear
4:53 PM 84.0 °F 32.0 °F 15% 29.84 in 10.0 mi NNW 5.8 mph - N/A   Clear
5:53 PM 80.1 °F 33.1 °F 18% 29.86 in 10.0 mi North 4.6 mph - N/A   Clear
6:53 PM 77.0 °F 33.1 °F 20% 29.86 in 10.0 mi North 13.8 mph 18.4 mph N/A   Clear
7:53 PM 75.0 °F 37.0 °F 25% 29.87 in 10.0 mi ENE 5.8 mph - N/A   Partly Cloudy
8:53 PM 73.9 °F 30.9 °F 21% 29.86 in 10.0 mi Calm Calm - N/A   Clear
9:53 PM 68.0 °F 33.1 °F 27% 29.88 in 10.0 mi WSW 10.4 mph - N/A   Clear
10:53 PM 68.0 °F 39.0 °F 35% 29.91 in 10.0 mi Calm Calm - N/A   Clear
11:53 PM 63.0 °F 37.9 °F 40% 29.91 in 10.0 mi WSW 11.5 mph - N/A   Clear